SCP
0 0 0 0 0 0 0 0 0 0 0 0 0 0 0 0 0 0 0 0 0 0 0 0 0 0 0 0 0 0 0 0 0 0 0 0 0 0 0 0 0 0 0
0 0 0 0 0 0 0 0 0 0 0 0 0 0 0 0 0 0 0 0 0 0 0 0 0 0 0 0 0 0 0 0 0 0 0 0 0 0 0 0 0 0 0
0 0 0 0 0 0 0 0 0 0 0 0 0 0 0 0 0 0 0 0 0 0 0 0 0 0 0 0 0 0 0 0 0 0 0 0 0 0 0 0 0 0 0
0 0 0 0 0 0 0 0 0 0 0 0 0 0 0 0 0 0 0 0 0 0 0 0 0 0 0 0 0 0 0 0 0 0 0 0 0 0 0 0 0 0 0
0 0 0 0 0 0 0 0 0 0 0 0 0 0 0 0 0 0 0 0 0 0 0 0 0 0 0 0 0 0 0 0 0 0 0 0 0 0 0 0 0 0 0
0 0 0 0 0 0 0 0 0 0 0 0 0 0 0 0 0 0 0 0 0 0 0 0 0 0 0 0 0 0 0 0 0 0 0 0 0 0 0 0 0 0 0
0 0 0 0 0 0 0 0 0 0 0 0 0 0 0 0 0 0 0 0 0 0 0 0 0 0 0 0 0 0 0 0 0 0 0 0 0 0 0 0 0 0 0
0 0 0 0 0 0 0 0 0 0 0 0 0 0 0 0 0 0 0 0 0 0 0 0 0 0 0 0 0 0 0 0 0 0 0 0 0 0 0 0 0 0 0
0 0 0 0 0 0 0 0 0 0 0 0 0 0 0 0 0 0 0 0 0 0 0 0 0 0 0 0 0 0 0 0 0 0 0 0 0 0 0 0 0 0 0
0 0 0 0 0 0 0 0 0 0 0 0 0 0 0 0 0 0 0 0 0 0 0 0 0 0 0 0 0 0 0 0 0 0 0 0 0 0 0 0 0 0 0
0 0 0 0 0 0 0 0 0 0 0 0 0 0 0 0 0 0 0 0 0 0 0 0 0 0 0 0 0 0 0 0 0 0 0 0 0 0 0 0 0 0 0
0 0 0 0 0 0 0 0 0 0 0 0 0 0 0 0 0 0 0 0 0 0 0 0 0 0 0 0 0 0 0 0 0 0 0 0 0 0 0 0 0 0 0
0 0 0 0 0 0 0 0 0 0 0 0 0 0 0 0 0 0 0 0 0 0 0 0 0 0 0 0 0 0 0 0 0 0 0 0 0 0 0 0 0 0 0
0 0 0 0 0 0 0 0 0 0 0 0 0 0 0 0 0 0 0 0 0 0 0 0 0 0 0 0 0 0 0 0 0 0 0 0 0 0 0 0 0 0 0
0 0 0 0 0 0 0 0 0 0 0 0 0 0 0 0 0 0 0 0 0 0 0 0 0 0 0 0 0 0 0 0 0 0 0 0 0 0 0 0 0 0 0
0 0 0 0 0 0 0 0 0 0 0 0 0 0 0 0 0 0 0 0 0 0 0 0 0 0 0 0 0 0 0 0 0 0 0 0 0 0 0 0 0 0 0
0 0 0 0 0 0 0 0 0 0 0 0 0 0 0 0 0 0 0 0 0 0 0 0 0 0 0 0 0 0 0 0 0 0 0 0 0 0 0 0 0 0 0
0 0 0 0 0 0 0 0 0 0 0 0 0 0 0 0 0 0 0 0 0 0 0 0 0 0 0 0 0 0 0 0 0 0 0 0 0 0 0 0 0 0 0
0 0 0 0 0 0 0 0 0 0 0 0 0 0 0 0 0 0 0 0 0 0 0 0 0 0 0 0 0 0 0 0 0 0 0 0 0 0 0 0 0 0 0
0 0 0 0 0 0 0 0 0 0 0 0 0 0 0 0 0 0 0 0 0 0 0 0 0 0 0 0 0 0 0 0 0 0 0 0 0 0 0 0 0 0 0
0 0 0 0 0 0 0 0 0 0 0 0 0 0 0 0 0 0 0 0 0 0 0 0 0 0 0 0 0 0 0 0 0 0 0 0 0 0 0 0 0 0 0
0 0 0 0 0 0 0 0 0 0 0 0 0 0 0 0 0 0 0 0 0 0 0 0 0 0 0 0 0 0 0 0 0 0 0 0 0 0 0 0 0 0 0
0 0 0 0 0 0 0 0 0 0 0 0 0 0 0 0 0 0 0 0 0 0 0 0 0 0 0 0 0 0 0 0 0 0 0 0 0 0 0 0 0 0 0
0 0 0 0 0 0 0 0 0 0 0 0 0 0 0 0 0 0 0 0 0 0 0 0 0 0 0 0 0 0 0 0 0 0 0 0 0 0 0 0 0 0 0
0 0 0 0 0 0 0 0 0 0 0 0 0 0 0 0 0 0 0 0 0 0 0 0 0 0 0 0 0 0 0 0 0 0 0 0 0 0 0 0 0 0 0
0 0 0 0 0 0 0 0 0 0 0 0 0 0 0 0 0 0 0 0 0 0 0 0 0 0 0 0 0 0 0 0 0 0 0 0 0 0 0 0 0 0 0
Wind_Speed
4 5 5 6 6 6 7 8 8 7 8 9 10 11 11 12 11 12 12 11 14 14 13 15 16 13 11 10 9 9 9 7 8 4 5 5 10 11 10 10 9 10 10
4 4 6 6 5 7 8 8 7 8 8 9 9 10 11 11 11 12 13 12 13 14 15 15 16 12 15 11 10 12 11 9 8 6 5 5 8 11 10 10 9 8 7
4 5 6 6 7 8 9 8 7 8 8 8 9 10 11 11 11 12 12 12 13 13 13 15 15 14 15 12 12 12 10 8 6 5 5 4 3 6 8 6 6 5 6
5 5 7 8 8 8 7 7 7 7 8 9 9 10 10 10 10 10 10 11 11 11 11 11 12 14 15 14 12 12 9 9 7 6 5 4 4 5 7 6 6 6 6
5 6 8 8 7 7 7 7 7 7 8 8 8 9 8 8 8 10 10 10 10 10 9 9 10 12 14 12 10 10 11 10 8 7 6 5 6 7 9 7 8 5 5
6 7 7 7 6 7 7 7 7 7 7 7 8 9 9 8 12 16 12 9 9 10 10 9 8 9 12 16 17 16 16 13 12 10 8 9 9 8 7 7 6 5 5
7 7 7 6 7 7 7 6 7 7 6 7 8 8 9 11 15 15 15 10 9 9 9 7 6 6 8 8 13 16 16 19 18 12 11 10 10 10 11 9 8 6 5
8 8 7 7 8 7 6 7 7 5 6 6 7 7 8 9 13 14 13 10 8 8 8 8 7 6 7 8 7 8 8 10 12 9 8 8 8 9 10 9 7 4 2
7 8 8 8 8 8 8 7 6 5 5 5 4 6 7 7 10 12 11 5 6 7 6 6 7 6 10 13 9 8 8 6 10 10 9 10 13 14 12 7 6 5 4
8 9 8 7 8 8 8 7 5 4 5 4 4 4 5 5 8 10 10 4 5 4 4 5 7 9 11 14 9 9 9 7 7 7 8 10 9 11 14 9 8 6 4
8 9 8 7 7 7 6 5 4 4 3 3 4 3 3 4 6 9 10 4 4 4 4 4 4 11 13 14 12 8 10 8 7 7 6 5 5 5 6 6 6 6 5
8 9 8 7 6 5 5 4 3 3 3 3 2 3 2 2 3 6 8 8 6 4 4 3 4 10 12 13 10 10 12 9 5 5 5 5 5 5 5 5 6 5 4
8 8 8 7 5 4 4 4 3 2 2 2 2 2 2 1 3 5 5 7 6 3 3 6 7 10 11 9 10 10 8 5 5 5 5 5 4 4 4 3 4 3 2
8 8 7 6 5 4 3 2 2 2 2 2 2 2 2 1 1 1 1 1 2 3 3 4 7 8 6 4 4 6 4 4 5 4 4 3 3 4 4 4 3 3 2
8 7 6 5 5 3 2 2 2 2 2 2 2 1 1 2 2 2 1 1 1 3 4 2 2 2 2 2 2 3 3 4 4 3 3 3 3 4 3 3 3 3 3
7 6 5 4 3 2 2 1 2 1 2 1 1 0 1 2 2 1 2 3 4 8 5 3 2 2 2 2 2 2 2 2 2 3 3 3 3 3 3 3 2 3 3
7 7 5 4 3 2 2 1 0 2 5 6 6 4 4 4 4 3 3 5 5 7 3 2 2 2 1 2 2 2 1 1 1 2 2 2 2 3 3 3 3 3 3
6 6 5 4 3 2 2 1 1 1 1 2 6 9 8 7 7 6 5 5 4 4 3 2 2 2 2 1 1 1 1 1 1 1 1 1 2 2 2 3 3 3 3
5 4 3 3 2 1 1 1 1 2 2 2 3 5 8 7 10 11 9 5 3 3 3 3 2 2 2 2 2 2 1 1 1 1 1 1 1 1 2 2 2 3 3
4 4 3 2 1 0 1 2 2 2 3 3 3 3 3 4 4 6 6 5 4 3 3 3 3 2 2 2 2 2 2 1 1 1 1 1 1 1 2 2 2 2 2
3 2 2 1 1 2 2 2 3 3 3 3 3 5 7 4 4 4 4 4 4 3 3 3 2 2 2 2 1 1 1 1 0 1 1 1 1 1 1 1 2 2 2
2 2 2 2 2 3 3 3 4 4 4 4 3 5 9 6 4 4 4 3 3 3 3 2 2 2 2 1 1 1 0 0 1 1 1 1 1 1 1 1 1 2 2
2 2 3 3 3 5 5 4 4 4 4 4 4 4 4 3 3 3 3 2 3 3 3 2 2 2 2 2 1 1 1 1 1 2 2 2 2 2 2 2 2 2 3
3 4 4 4 4 4 4 4 4 4 4 3 3 3 3 2 2 2 2 2 2 2 2 2 1 2 3 2 1 1 1 2 2 2 3 3 3 2 2 2 3 3 3
4 4 4 4 4 4 4 4 3 3 3 2 2 2 2 2 2 2 2 2 2 2 2 2 2 2 3 3 3 3 4 4 2 2 2 3 3 3 3 3 3 3 3
5 5 4 4 4 3 3 3 2 2 2 2 1 1 1 1 2 2 2 2 2 2 3 2 3 4 4 4 5 6 6 6 5 5 4 3 4 4 4 3 4 3 4
Wind_Direction
246 240 240 238 230 227 230 232 229 226 216 215 213 216 220 221 220 225 229 224 225 226 222 222 225 221 220 215 209 209 212 208 227 205 182 175 187 195 198 196 196 203 212
261 253 250 248 241 238 240 239 230 229 223 219 215 217 220 220 220 224 230 228 229 229 226 224 225 221 222 219 214 214 214 209 209 201 179 176 191 197 192 193 196 201 204
279 267 265 260 251 248 248 245 235 231 229 223 218 220 221 220 220 224 230 231 232 233 229 226 225 220 223 220 216 215 212 205 197 184 176 169 171 183 181 189 192 197 204
301 281 272 266 260 259 259 252 243 236 233 229 225 224 222 220 220 223 228 234 237 239 236 233 228 222 223 219 217 215 203 195 188 179 168 162 159 163 172 182 196 203 211
307 288 277 278 276 272 266 260 253 243 238 233 229 228 223 221 221 221 225 232 237 242 241 238 235 230 226 219 214 206 195 194 187 185 178 168 169 168 185 186 200 195 210
305 291 289 290 286 277 271 265 258 251 244 234 230 228 226 226 228 225 223 228 233 238 244 242 238 231 228 223 220 209 198 192 190 188 189 188 186 182 172 178 180 176 212
312 305 303 299 291 284 280 272 262 256 248 240 236 229 232 234 233 232 228 226 231 235 238 239 237 227 220 220 221 215 210 208 199 188 191 189 181 179 173 178 185 189 197
312 311 311 308 300 295 286 274 267 258 248 245 241 234 236 240 238 237 233 229 234 236 233 230 231 223 211 205 202 202 200 205 203 197 190 184 176 171 177 177 176 168 132
310 310 310 306 301 298 290 283 275 265 257 246 242 233 236 245 242 241 235 229 234 235 230 223 218 216 215 208 200 197 193 196 201 190 181 175 174 172 164 148 151 164 195
310 307 305 299 293 290 287 286 280 264 259 252 249 238 237 245 247 243 236 227 231 231 224 217 216 214 213 207 199 192 190 180 169 169 171 172 171 174 176 174 172 178 183
307 305 302 298 292 288 289 285 282 275 269 259 257 254 245 245 256 250 240 221 217 219 219 214 214 217 215 211 201 194 193 173 170 167 161 160 162 170 180 185 187 189 197
307 303 301 299 297 294 292 294 288 275 269 267 266 273 270 266 257 261 251 236 220 213 217 201 207 215 214 211 205 198 194 176 162 163 166 175 178 183 187 188 193 203 209
305 300 299 299 295 290 285 286 290 275 262 265 260 267 282 294 291 279 271 250 227 212 198 194 200 211 210 209 207 198 184 171 166 173 182 188 185 180 168 170 182 190 189
296 296 295 294 294 292 285 272 265 264 266 272 271 272 284 295 295 300 286 268 220 197 176 186 195 205 202 186 187 191 174 170 174 182 183 174 160 166 177 177 183 180 181
289 286 287 283 280 285 283 270 262 248 224 235 247 247 259 279 274 252 189 177 164 156 137 129 142 157 179 157 158 161 160 166 179 180 173 170 172 178 178 171 172 172 183
290 286 284 281 274 264 262 320 43 56 63 63 110 140 299 305 308 264 189 164 153 150 131 136 146 153 158 160 162 157 158 172 177 168 168 173 178 179 171 161 162 178 196
277 280 280 275 266 253 239 211 170 46 49 47 47 52 48 34 36 54 102 117 124 138 115 118 126 132 132 132 132 132 142 133 132 148 162 168 169 169 167 175 177 180 193
277 274 272 272 264 249 231 217 179 135 57 18 25 41 44 49 50 55 81 95 83 79 76 94 95 94 97 101 101 102 110 106 101 116 131 146 157 166 179 187 188 188 191
282 275 275 276 275 256 187 132 110 100 88 52 24 22 25 43 53 53 58 64 72 65 59 64 63 66 67 70 73 77 90 102 99 108 121 136 150 157 184 192 192 189 183
286 287 290 279 282 85 101 108 105 99 88 67 43 18 8 34 43 35 38 45 56 53 48 52 49 52 57 65 71 79 80 84 97 109 135 150 161 173 190 194 192 189 196
298 310 333 357 41 62 77 88 93 96 91 76 42 44 67 67 63 54 49 45 44 41 35 37 38 36 36 41 54 76 93 104 130 159 165 173 168 181 192 188 189 184 174
314 336 13 42 54 63 68 69 77 84 86 80 51 38 56 62 60 56 50 40 32 29 22 32 36 27 22 21 24 36 51 218 221 201 198 193 188 186 180 181 183 180 176
6 33 47 52 59 69 69 65 69 75 74 68 61 52 46 51 52 52 43 28 22 19 15 22 23 10 6 6 4 356 257 251 241 215 204 204 202 199 194 199 195 192 197
29 48 59 60 60 62 67 66 65 67 67 65 60 56 51 47 43 37 23 11 9 2 357 359 353 338 335 337 333 320 283 266 241 216 207 205 206 206 202 206 206 206 204
38 46 52 55 58 61 65 65 63 61 59 55 50 43 35 27 17 2 349 344 341 333 329 326 318 313 308 304 298 289 288 287 265 217 198 196 204 205 205 210 206 203 200
38 43 46 48 51 51 54 56 51 44 38 26 17 7 357 345 329 319 317 315 313 306 303 299 291 288 288 286 282 281 273 266 246 222 194 192 199 207 203 208 209 206 202